[[{"header":{"parameterUnit":"m.s-1","parameterCategory":1,"la1":30.2991,"la2":30.254,"lo1":-89.0895,"lo2":-89.0444,"dy":0.0017,"dx":0.0017,"nx":28,"ny":28,"refTime":"2023-10-20T03:00:00:Z","depth":0,"parameterNumber":2,"parameterNumberName":"U-component_of_WINDS"},"data":[0,0,0,0,0,0,0,0,0,0,0,0,0,0,0,0,0,0,0,0,0,0,0,0,0,0,0,0,0,0,0,0,0,0,0,0,0,0,0,0,0,0,0,0,0,0,0,0,0,0,0,0,0,0,0,0,0,0,-1.0763,-1.0762,0,-1.0722,-1.0721,-1.0721,-1.0673,-1.0672,-1.0671,-1.0671,-1.063,-1.063,-1.0629,0,0,0,0,0,0,0,0,0,0,0,0,0,-1.0799,-1.0799,-1.0763,-1.0762,-1.0762,-1.0722,-1.0721,-1.0721,-1.0673,-1.0672,-1.0671,-1.067,-1.063,-1.063,-1.0629,0,0,0,0,0,0,0,0,0,0,0,0,0,-1.0774,-1.0799,-1.0763,-1.0733,-1.073,-1.0722,-1.0721,-1.0721,-1.0673,-1.0672,-1.0671,-1.067,-1.063,-1.063,-1.0629,-1.0648,0,0,-1.0627,-1.0627,0,0,0,0,0,0,0,0,-1.0775,-1.0772,-1.0738,-1.0735,-1.0731,-1.0701,-1.0719,-1.0696,-1.0673,-1.0695,-1.0671,-1.0669,-1.0655,-1.0652,-1.0647,-1.0646,-1.0644,-1.0627,-1.0627,-1.0627,-1.0626,0,0,0,0,0,0,0,-1.0777,-1.0774,-1.0747,-1.0737,-1.0733,-1.0722,-1.0717,-1.0715,-1.0681,-1.0693,-1.0689,-1.0685,-1.0653,-1.0648,-1.0646,-1.0644,-1.0627,-1.0627,-1.0626,-1.0626,-1.0655,-1.0656,0,0,0,0,0,0,-1.0783,-1.0776,-1.0748,-1.0745,-1.0751,-1.0722,-1.0716,-1.0712,-1.0681,-1.0676,-1.0686,-1.0683,-1.0649,-1.0646,-1.0644,-1.0663,-1.0627,-1.0626,-1.0626,-1.0654,-1.0655,-1.0656,0,0,0,0,0,0,-1.0784,-1.0781,-1.0749,-1.0759,-1.0754,-1.0722,-1.0718,-1.0712,-1.0707,-1.0676,-1.067,-1.0687,-1.0648,-1.0645,-1.0647,-1.0661,-1.0626,-1.0625,-1.0652,-1.0654,-1.0656,-1.0701,0,0,0,0,0,0,-1.0785,-1.0782,-1.0788,-1.076,-1.0754,-1.0753,-1.0719,-1.0712,-1.0706,-1.0701,-1.0675,-1.067,-1.0647,-1.0648,-1.0646,-1.0659,-1.0625,-1.0651,-1.0653,-1.0655,-1.0698,-1.0704,-1.0709,0,0,0,0,0,-1.0787,-1.0803,-1.0789,-1.0786,-1.0762,-1.0754,-1.0751,-1.0724,-1.0707,-1.0713,-1.0694,-1.0671,-1.066,-1.0649,-1.0646,-1.0659,-1.065,-1.0653,-1.0655,-1.0696,-1.0703,-1.0709,0,0,0,0,0,0,-1.0835,-1.0799,-1.0783,-1.079,-1.0776,-1.0746,-1.0753,-1.0732,-1.0722,-1.0718,-1.0686,-1.068,-1.0686,-1.0673,-1.0661,-1.0675,-1.0651,-1.0654,-1.0683,-1.069,-1.0695,-1.0698,-1.0624,0,0,0,0,0,-1.0846,-1.0843,-1.0812,-1.0822,-1.0815,-1.0785,-1.0781,-1.0761,-1.0745,-1.0738,-1.0719,-1.0704,-1.0697,-1.0693,-1.0685,-1.0697,-1.069,-1.0704,-1.071,-1.0714,-1.0716,-1.072,-1.0726,-1.0664,-1.0664,-1.0664,0,0,-1.087,-1.085,-1.085,-1.0831,-1.0817,-1.0814,-1.078,-1.0779,-1.0776,-1.0738,-1.0738,-1.0724,-1.0705,-1.0712,-1.0714,-1.0701,-1.0732,-1.0718,-1.0722,-1.0721,-1.0724,-1.0729,-1.0735,-1.0666,-1.0666,-1.0666,0,0,-1.0911,-1.0896,-1.0902,-1.0888,-1.0867,-1.0848,-1.0849,-1.0823,-1.0811,-1.0811,-1.0782,-1.0779,-1.0768,-1.0755,-1.0747,-1.0783,-1.0761,-1.0782,-1.081,-1.0814,-1.0819,-1.0823,-1.0835,-1.0839,-1.0784,-1.0784,-1.0784,0,-1.0943,-1.0937,-1.0908,-1.0907,-1.0899,-1.0865,-1.087,-1.0859,-1.0837,-1.0832,-1.0818,-1.0803,-1.0788,-1.079,-1.0799,-1.0795,-1.0795,-1.0784,-1.0821,-1.0824,-1.0828,-1.0838,-1.0843,-1.0786,-1.0786,-1.0786,-1.0786,0,-1.0976,-1.0973,-1.098,-1.0959,-1.0952,-1.0955,-1.0926,-1.0922,-1.0904,-1.0885,-1.0885,-1.0866,-1.0853,-1.0852,-1.0835,-1.0852,-1.0845,-1.0827,-1.0802,-1.0837,-1.0846,-1.085,-1.079,-1.0789,-1.0788,-1.0788,0,0,-1.1046,-1.1008,-1.1011,-1.1001,-1.0975,-1.0971,-1.0973,-1.0959,-1.0957,-1.0943,-1.0942,-1.0934,-1.0916,-1.0907,-1.0887,-1.0892,-1.092,-1.0872,-1.0871,-1.088,-1.0937,-1.095,-1.0955,-1.0906,-1.0906,-1.0907,-1.0938,0,-1.1082,-1.1081,-1.1054,-1.1061,-1.1056,-1.1023,-1.1024,-1.1008,-1.0991,-1.0985,-1.0967,-1.0961,-1.0939,-1.0933,-1.0935,-1.0916,-1.093,-1.0913,-1.0904,-1.0904,-1.0909,-1.096,-1.0974,-1.1005,-1.0942,-1.0942,-1.0943,0,-1.1123,-1.111,-1.1116,-1.1089,-1.1086,-1.1087,-1.1072,-1.1067,-1.1049,-1.1036,-1.1026,-1.1004,-1.1003,-1.098,-1.0978,-1.0967,-1.0962,-1.0952,-1.0952,-1.0949,-1.0925,-1.0958,-1.1014,-1.1018,-1.0949,-1.0948,-1.0948,0,-1.1172,-1.1156,-1.1157,-1.1149,-1.1118,-1.112,-1.1107,-1.1087,-1.1081,-1.1068,-1.1063,-1.1051,-1.1044,-1.1036,-1.101,-1.0996,-1.1011,-1.0986,-1.0999,-1.1,-1.1003,-1.1003,-1.1058,-1.1002,-1.1002,-1.1002,-1.1002,0,-1.1213,-1.1218,-1.1178,-1.1179,-1.1183,-1.1153,-1.1158,-1.1142,-1.1125,-1.1121,-1.1093,-1.109,-1.1058,-1.1052,-1.1032,-1.1033,-1.103,-1.102,-1.1014,-1.1021,-1.1023,-1.1017,-1.1013,-1.1003,-1.1003,-1.1003,-1.1003,0,-1.1268,-1.1242,-1.1241,-1.1211,-1.1204,-1.1208,-1.1183,-1.1182,-1.1163,-1.1159,-1.1157,-1.1128,-1.1119,-1.1093,-1.1078,-1.1065,-1.1071,-1.1062,-1.1077,-1.1073,-1.1087,-1.1086,-1.1139,-1.1144,-1.1087,-1.1088,-1.1088,0,-1.1296,-1.1298,-1.1268,-1.1264,-1.1252,-1.1245,-1.1238,-1.1209,-1.1202,-1.1181,-1.1183,-1.1172,-1.1161,-1.1149,-1.1127,-1.1115,-1.1104,-1.1124,-1.1102,-1.1109,-1.1103,-1.1102,-1.1102,-1.1128,-1.1129,-1.1129,-1.113,0,-1.1347,-1.1334,-1.1324,-1.131,-1.1302,-1.1289,-1.1275,-1.1273,-1.124,-1.1235,-1.1225,-1.1217,-1.1201,-1.119,-1.1175,-1.1162,-1.114,-1.1137,-1.1139,-1.1146,-1.1154,-1.1149,-1.1088,-1.1136,-1.1135,-1.1135,-1.1134,-1.1134,-1.1388,-1.1388,-1.1367,-1.1357,-1.1343,-1.133,-1.1328,-1.1308,-1.13,-1.1284,-1.1267,-1.1259,-1.124,-1.1217,-1.1206,-1.1199,-1.1188,-1.1191,-1.1192,-1.1193,-1.1196,-1.1156,-1.1196,-1.1196,-1.1196,-1.1196,-1.1196,0,-1.1437,-1.1422,-1.1413,-1.1393,-1.1385,-1.1365,-1.1348,-1.1343,-1.1336,-1.132,-1.131,-1.1298,-1.1288,-1.1264,-1.1251,-1.125,-1.124,-1.1248,-1.1247,-1.1244,-1.1207,-1.1206,-1.1256,-1.1256,-1.1256,-1.1256,-1.1256,-1.1256,-1.1462,-1.146,-1.1445,-1.1436,-1.142,-1.1412,-1.1404,-1.1392,-1.1378,-1.1366,-1.1357,-1.1341,-1.1322,-1.1307,-1.1296,-1.129,-1.1286,-1.1297,-1.1287,-1.1253,-1.1247,-1.1241,-1.124,-1.1296,-1.1296,-1.1324,-1.1324,-1.1324]},{"header":{"parameterUnit":"m.s-1","parameterCategory":1,"la1":30.2991,"la2":30.254,"lo1":-89.0895,"lo2":-89.0444,"dy":0.0017,"dx":0.0017,"nx":28,"ny":28,"refTime":"2023-10-20T03:00:00:Z","depth":0,"parameterNumber":3,"parameterNumberName":"V-component_of_WINDS"},"data":[0,0,0,0,0,0,0,0,0,0,0,0,0,0,0,0,0,0,0,0,0,0,0,0,0,0,0,0,0,0,0,0,0,0,0,0,0,0,0,0,0,0,0,0,0,0,0,0,0,0,0,0,0,0,0,0,0,0,3.7812,3.7812,0,3.7794,3.7794,3.7793,3.7814,3.7814,3.7815,3.7816,3.7792,3.779,3.7789,0,0,0,0,0,0,0,0,0,0,0,0,0,3.786,3.7859,3.7812,3.7812,3.7812,3.7794,3.7794,3.7793,3.7813,3.7814,3.7815,3.7816,3.7792,3.7791,3.7789,0,0,0,0,0,0,0,0,0,0,0,0,0,3.784,3.7859,3.7812,3.782,3.782,3.7794,3.7794,3.7793,3.7813,3.7814,3.7816,3.7817,3.7793,3.7791,3.7789,3.7753,0,0,3.7782,3.7782,0,0,0,0,0,0,0,0,3.7842,3.7839,3.7819,3.7819,3.782,3.7807,3.7802,3.7779,3.7813,3.7816,3.7816,3.7817,3.7796,3.7793,3.7787,3.7751,3.775,3.7782,3.7781,3.778,3.778,0,0,0,0,0,0,0,3.7843,3.7839,3.7805,3.7819,3.7819,3.7823,3.7821,3.7798,3.7799,3.7816,3.7817,3.7815,3.7796,3.7789,3.7787,3.775,3.7782,3.778,3.7779,3.7778,3.7685,3.7684,0,0,0,0,0,0,3.7844,3.7841,3.7805,3.7804,3.7834,3.7821,3.7819,3.781,3.78,3.7799,3.7814,3.7816,3.7792,3.7789,3.7786,3.7744,3.778,3.7778,3.7777,3.7686,3.7685,3.7683,0,0,0,0,0,0,3.7845,3.7841,3.7806,3.7823,3.7819,3.7819,3.7808,3.7809,3.7802,3.7798,3.7798,3.7807,3.7793,3.7789,3.7761,3.7743,3.7777,3.7775,3.7688,3.7686,3.7684,3.7659,0,0,0,0,0,0,3.7846,3.7841,3.7828,3.7822,3.7818,3.7783,3.7807,3.7808,3.7799,3.7802,3.7792,3.7791,3.7794,3.7764,3.7759,3.7741,3.7774,3.7689,3.7687,3.7684,3.7661,3.7656,3.7652,0,0,0,0,0,3.7848,3.782,3.7827,3.7823,3.7802,3.7782,3.7779,3.7784,3.7798,3.7784,3.7782,3.7791,3.7746,3.7761,3.7756,3.7737,3.769,3.7687,3.7685,3.7663,3.7657,3.7652,0,0,0,0,0,0,3.7821,3.782,3.7827,3.7797,3.779,3.7785,3.7768,3.7777,3.7764,3.7767,3.7772,3.7769,3.774,3.7736,3.7753,3.7702,3.772,3.7716,3.7706,3.77,3.7696,3.7697,3.7772,0,0,0,0,0,3.7812,3.7798,3.7796,3.777,3.7766,3.7768,3.7759,3.7764,3.7756,3.7752,3.7748,3.7738,3.7722,3.7711,3.7695,3.7661,3.7659,3.7645,3.764,3.7637,3.7633,3.7615,3.7609,3.7674,3.7674,3.7674,0,0,3.7793,3.779,3.778,3.7764,3.7759,3.7743,3.7765,3.7746,3.7734,3.7749,3.7723,3.772,3.7709,3.7678,3.7664,3.7673,3.7615,3.7633,3.763,3.7629,3.7612,3.7606,3.76,3.7672,3.7672,3.7673,0,0,3.7749,3.7746,3.7724,3.7719,3.7712,3.7714,3.7708,3.7703,3.7702,3.7677,3.7688,3.7673,3.7644,3.7637,3.7629,3.7585,3.7593,3.758,3.7555,3.7538,3.7533,3.7529,3.7513,3.7508,3.7576,3.7576,3.7576,0,3.7725,3.7703,3.7711,3.7693,3.7685,3.77,3.7678,3.7672,3.7659,3.7653,3.7664,3.7631,3.7624,3.7593,3.7582,3.7575,3.7569,3.758,3.7534,3.7529,3.7525,3.7511,3.7505,3.7574,3.7574,3.7575,3.7575,0,3.7674,3.7658,3.7641,3.7632,3.7622,3.7602,3.7606,3.7596,3.7601,3.7602,3.7576,3.757,3.7554,3.7547,3.7551,3.7516,3.7522,3.7533,3.7552,3.7517,3.7504,3.7498,3.7572,3.7573,3.7573,3.7573,0,0,3.7612,3.7609,3.7602,3.7599,3.7592,3.758,3.756,3.7547,3.7538,3.7529,3.7512,3.7489,3.75,3.7491,3.7495,3.748,3.7446,3.7493,3.7493,3.7485,3.7408,3.74,3.7393,3.7452,3.7451,3.745,3.7409,0,3.7569,3.7537,3.7544,3.7512,3.7498,3.7512,3.7495,3.7489,3.7489,3.7476,3.7475,3.7459,3.7474,3.7469,3.7455,3.7453,3.7431,3.7456,3.7436,3.7435,3.7438,3.7386,3.7377,3.7339,3.7404,3.7403,3.7402,0,3.7514,3.7506,3.7473,3.7471,3.7465,3.7449,3.7439,3.7426,3.7419,3.7421,3.7412,3.742,3.7399,3.7419,3.7391,3.7408,3.74,3.7398,3.7396,3.7395,3.7416,3.7383,3.7326,3.7321,3.7394,3.7394,3.7395,0,3.7473,3.7453,3.7431,3.7427,3.7424,3.7413,3.7411,3.7406,3.7398,3.7388,3.7383,3.737,3.7363,3.7352,3.7355,3.7369,3.7327,3.7346,3.7327,3.7327,3.7317,3.7317,3.7258,3.7311,3.7311,3.7311,3.7312,0,3.7424,3.7403,3.7413,3.74,3.7377,3.7385,3.7362,3.7361,3.7357,3.7343,3.7354,3.734,3.7346,3.7332,3.7334,3.7311,3.7307,3.7307,3.7308,3.7307,3.7307,3.7301,3.7304,3.731,3.731,3.7311,3.7311,0,3.7374,3.738,3.7357,3.7357,3.7356,3.7339,3.7339,3.7326,3.7327,3.7309,3.7306,3.7308,3.7292,3.7295,3.7277,3.7279,3.7251,3.7254,3.7253,3.7255,3.7235,3.7237,3.7171,3.7163,3.722,3.722,3.7219,0,3.7343,3.7328,3.7327,3.7319,3.7317,3.7304,3.7297,3.7305,3.7296,3.7289,3.7277,3.7263,3.7253,3.7227,3.7226,3.7213,3.7217,3.7195,3.7215,3.7215,3.7218,3.7219,3.7218,3.7191,3.719,3.719,3.7189,0,3.7287,3.7291,3.7281,3.7273,3.7264,3.7257,3.7251,3.7244,3.7251,3.7241,3.7227,3.7219,3.7203,3.7189,3.7177,3.7174,3.7182,3.7183,3.7178,3.7176,3.7177,3.7177,3.7243,3.7184,3.7185,3.7185,3.7185,3.7186,3.7246,3.7234,3.7232,3.722,3.7217,3.7212,3.72,3.7202,3.719,3.7179,3.7184,3.7168,3.7162,3.7148,3.7143,3.713,3.7138,3.7131,3.7129,3.7127,3.7125,3.7179,3.7128,3.7128,3.7128,3.7128,3.7128,0,3.7191,3.7191,3.7181,3.7173,3.7165,3.7176,3.717,3.7162,3.7148,3.7143,3.7133,3.7117,3.7105,3.7104,3.7091,3.7081,3.7085,3.7078,3.7079,3.7078,3.7118,3.7124,3.7075,3.7075,3.7075,3.7075,3.7075,3.7075,3.7162,3.7142,3.7146,3.7125,3.7125,3.7111,3.7106,3.7101,3.7098,3.708,3.7071,3.7071,3.7067,3.7055,3.7044,3.7044,3.7039,3.7031,3.7032,3.7069,3.7075,3.708,3.7086,3.7029,3.7029,3.6993,3.6993,3.6993]}]]